FW0380 Weather Reports


time (UTC)temp
F
wind
direction
speed
knots
gust
knots
rain 1hr
in
rain 24hr
in
rain mn
in
humidity
%
barometer
mb
20260505052237 56 159 0.0 0.0 0.00 0.00 0.00 75 1012.5
20260505051737 56 159 0.0 0.9 0.00 0.00 0.00 75 1012.5
20260505051513 56 159 0.0 0.9 0.00 0.00 0.00 74 1012.5
20260505050732 56 159 0.0 0.9 0.00 0.00 0.00 74 1012.5
20260505050233 56 159 0.0 0.9 0.00 0.00 0.00 73 1012.5
20260505041730 58 153 0.9 2.6 0.00 0.00 0.00 66 1012.4
20260505041229 58 145 0.9 2.6 0.00 0.00 0.00 66 1012.4
20260505040730 58 91 0.0 3.5 0.00 0.00 0.00 65 1012.3
20260505040503 58 161 0.0 3.5 0.00 0.00 0.00 64 1012.3
20260505035731 58 172 0.9 3.5 0.00 0.00 0.00 63 1012.4
20260505035229 59 149 0.9 4.3 0.00 0.00 0.00 63 1012.3
20260505035004 59 178 0.9 4.3 0.00 0.00 0.00 62 1012.3
20260505034229 59 218 0.0 3.5 0.00 0.00 0.00 61 1012.3
20260505033729 59 159 0.9 3.5 0.00 0.00 0.00 61 1012.4
20260505033230 59 157 0.9 2.6 0.00 0.00 0.00 60 1012.3
20260505032726 59 135 0.9 5.2 0.00 0.00 0.00 59 1012.3
20260505032226 59 134 0.9 5.2 0.00 0.00 0.00 59 1012.3
20260505031726 59 130 1.7 6.1 0.00 0.00 0.00 59 1012.4
20260505031225 60 153 1.7 6.1 0.00 0.00 0.00 58 1012.4
20260505030725 60 138 0.9 4.3 0.00 0.00 0.00 58 1012.4
20260505030225 60 187 0.9 4.3 0.00 0.00 0.00 56 1012.4
20260505025725 60 161 1.7 4.3 0.00 0.00 0.00 56 1012.5
20260505025228 60 130 0.9 5.2 0.00 0.00 0.00 56 1012.4
20260505024727 60 143 0.0 5.2 0.00 0.00 0.00 55 1012.4
20260505024500 61 164 0.0 3.5 0.00 0.00 0.00 55 1012.4
20260505023726 61 163 0.0 3.5 0.00 0.00 0.00 55 1012.5
20260505023226 61 150 0.0 0.9 0.00 0.00 0.00 54 1012.5
20260505022724 61 150 0.0 1.7 0.00 0.00 0.00 54 1012.5
20260505022225 61 147 0.0 3.5 0.00 0.00 0.00 52 1012.6
20260505021725 61 198 0.9 3.5 0.00 0.00 0.00 52 1012.6
20260505021224 61 196 0.9 4.3 0.00 0.00 0.00 52 1012.6
20260505020726 62 178 0.9 5.2 0.00 0.00 0.00 51 1012.6
20260505020224 62 265 0.9 5.2 0.00 0.00 0.00 51 1012.5
20260505015719 62 235 0.9 6.1 0.00 0.00 0.00 51 1012.5
20260505015214 63 191 0.0 6.1 0.00 0.00 0.00 51 1012.4
20260505014707 63 169 0.0 1.7 0.00 0.00 0.00 50 1012.2
20260505014207 63 169 0.0 4.3 0.00 0.00 0.00 49 1012.2
20260505013706 63 169 0.0 4.3 0.00 0.00 0.00 48 1012.2
20260505013218 64 163 0.0 4.3 0.00 0.00 0.00 47 1012.3
20260505013211 64 163 0.0 4.3 0.00 0.00 0.00 48 1012.3
20260505012207 64 161 0.0 6.1 0.00 0.00 0.00 47 1012.2
20260505011705 64 233 0.9 6.1 0.00 0.00 0.00 47 1012.1
20260505011201 64 178 0.9 6.1 0.00 0.00 0.00 47 1012.1
20260505010701 65 263 0.9 6.1 0.00 0.00 0.00 46 1012.0
20260505010201 65 189 0.9 4.3 0.00 0.00 0.00 47 1012.0
20260505005930 65 150 1.7 4.3 0.00 0.00 0.00 46 1011.8
20260505005201 65 178 1.7 5.2 0.00 0.00 0.00 46 1011.9
20260505004702 65 187 1.7 5.2 0.00 0.00 0.00 46 1011.8
20260505004200 65 229 1.7 6.1 0.00 0.00 0.00 46 1011.7
20260505003701 65 212 2.6 6.1 0.00 0.00 0.00 45 1011.7
20260505003202 66 232 2.6 8.7 0.00 0.00 0.00 45 1011.7
20260505002702 66 234 1.7 8.7 0.00 0.00 0.00 44 1011.6
20260505002221 67 203 0.9 5.2 0.00 0.00 0.00 44 1011.5
20260505002211 66 214 0.9 4.3 0.00 0.00 0.00 44 1011.7
20260505001429 67 177 0.9 5.2 0.00 0.00 0.00 43 1011.5
20260505000655 67 163 0.9 5.2 0.00 0.00 0.00 42 1011.5
20260505000649 67 182 0.9 5.2 0.00 0.00 0.00 43 1011.5
20260504235635 67 213 0.9 4.3 0.00 0.00 0.00 42 1011.4
20260504235135 67 240 0.9 3.5 0.00 0.00 0.00 42 1011.4
20260504234634 68 209 1.7 5.2 0.00 0.00 0.00 42 1011.4
20260504234133 68 170 1.7 7.0 0.00 0.00 0.00 41 1011.4
20260504233634 68 264 1.7 7.0 0.00 0.00 0.00 41 1011.5
20260504233129 68 233 1.7 7.0 0.00 0.00 0.00 41 1011.4
20260504232631 68 163 2.6 7.0 0.00 0.00 0.00 40 1011.4
20260504232129 69 227 1.7 7.0 0.00 0.00 0.00 40 1011.4
20260504231630 69 171 1.7 7.0 0.00 0.00 0.00 41 1011.4
20260504231129 69 239 2.6 7.8 0.00 0.00 0.00 40 1011.4
20260504230629 69 234 2.6 7.8 0.00 0.00 0.00 39 1011.5
20260504230130 69 227 1.7 7.0 0.00 0.00 0.00 40 1011.4
20260504225907 69 229 2.6 13.0 0.00 0.00 0.00 40 1011.4
20260504225129 69 259 2.6 13.0 0.00 0.00 0.00 39 1011.3
20260504224907 69 195 2.6 7.8 0.00 0.00 0.00 40 1011.5
20260504224423 69 111 2.6 7.8 0.00 0.00 0.00 39 1011.4
20260504224138 69 265 2.6 7.8 0.00 0.00 0.00 39 1011.4
20260504223129 69 232 1.7 7.0 0.00 0.00 0.00 39 1011.3
20260504222629 69 238 2.6 9.6 0.00 0.00 0.00 39 1011.3
20260504222406 70 258 2.6 9.6 0.00 0.00 0.00 38 1011.4
20260504221629 70 221 2.6 7.8 0.00 0.00 0.00 39 1011.5
20260504221129 70 217 3.5 7.8 0.00 0.00 0.00 39 1011.6
20260504220903 70 174 3.5 9.6 0.00 0.00 0.00 37 1011.5
20260504220125 71 168 2.6 7.0 0.00 0.00 0.00 39 1011.6
20260504215859 71 169 2.6 7.0 0.00 0.00 0.00 37 1011.5
20260504215123 71 232 2.6 7.8 0.00 0.00 0.00 38 1011.8
20260504214905 71 217 2.6 7.8 0.00 0.00 0.00 37 1011.8
20260504214120 71 121 2.6 7.8 0.00 0.00 0.00 38 1011.7
20260504213620 71 240 3.5 7.8 0.00 0.00 0.00 37 1011.8
20260504213116 71 212 3.5 7.0 0.00 0.00 0.00 36 1011.8
20260504212616 71 251 2.6 9.6 0.00 0.00 0.00 36 1011.8
20260504212115 71 163 2.6 9.6 0.00 0.00 0.00 37 1011.9
20260504211617 71 194 2.6 7.8 0.00 0.00 0.00 37 1011.8
20260504211116 71 222 2.6 9.6 0.00 0.00 0.00 37 1011.7
20260504210616 71 173 2.6 9.6 0.00 0.00 0.00 37 1011.7
20260504210116 71 157 2.6 8.7 0.00 0.00 0.00 37 1011.8
20260504205617 71 219 3.5 8.7 0.00 0.00 0.00 36 1011.7
20260504205111 72 223 3.5 11.3 0.00 0.00 0.00 35 1011.7
20260504204617 72 113 3.5 13.0 0.00 0.00 0.00 34 1011.8
20260504204609 72 168 3.5 11.3 0.00 0.00 0.00 36 1011.7
20260504203606 72 201 3.5 13.0 0.00 0.00 0.00 36 1011.8
20260504203105 72 237 4.3 13.0 0.00 0.00 0.00 34 1011.7
20260504202604 72 128 4.3 13.0 0.00 0.00 0.00 34 1012.0
20260504202104 73 202 3.5 10.4 0.00 0.00 0.00 34 1011.9
20260504201604 73 165 3.5 9.6 0.00 0.00 0.00 36 1012.0
20260504201106 73 205 2.6 13.0 0.00 0.00 0.00 35 1012.1
20260504200605 72 283 2.6 13.0 0.00 0.00 0.00 34 1012.1
20260504200337 72 291 4.3 14.8 0.00 0.00 0.00 38 1012.1
20260504195605 72 154 5.2 16.5 0.00 0.00 0.00 34 1012.1
20260504195104 72 211 4.3 16.5 0.00 0.00 0.00 34 1012.2
20260504194603 72 241 4.3 12.2 0.00 0.00 0.00 36 1012.4
20260504194104 73 90 4.3 10.4 0.00 0.00 0.00 34 1012.5
20260504193604 73 209 4.3 10.4 0.00 0.00 0.00 35 1012.5
20260504193339 73 204 3.5 9.6 0.00 0.00 0.00 35 1012.6
20260504192605 73 180 3.5 9.6 0.00 0.00 0.00 35 1012.5
20260504192104 73 300 3.5 7.8 0.00 0.00 0.00 35 1012.6
20260504191605 73 219 3.5 8.7 0.00 0.00 0.00 35 1012.7
20260504191104 73 227 3.5 8.7 0.00 0.00 0.00 33 1012.8
20260504190605 73 304 3.5 13.9 0.00 0.00 0.00 34 1012.7
20260504190104 73 227 3.5 13.9 0.00 0.00 0.00 34 1012.8
20260504185604 73 198 3.5 14.8 0.00 0.00 0.00 34 1012.9
20260504185121 73 257 2.6 7.8 0.00 0.00 0.00 35 1012.8
20260504185109 73 184 3.5 14.8 0.00 0.00 0.00 34 1012.9
20260504184104 73 229 2.6 7.8 0.00 0.00 0.00 35 1012.9
20260504183601 73 267 2.6 7.8 0.00 0.00 0.00 33 1013.0
20260504183334 73 279 2.6 7.8 0.00 0.00 0.00 35 1013.1
20260504182600 72 236 2.6 10.4 0.00 0.00 0.00 34 1013.2
20260504182103 72 235 3.5 10.4 0.00 0.00 0.00 35 1013.1
20260504181601 72 154 3.5 10.4 0.00 0.00 0.00 37 1013.2
20260504181101 71 229 2.6 10.4 0.00 0.00 0.00 34 1013.4
20260504180603 71 196 2.6 7.0 0.00 0.00 0.00 35 1013.4
20260504180101 71 122 3.5 9.6 0.00 0.00 0.00 34 1013.5
20260504175601 71 232 3.5 9.6 0.00 0.00 0.00 35 1013.7
20260504175119 70 162 4.3 13.0 0.00 0.00 0.00 33 1013.8
20260504175110 70 240 4.3 9.6 0.00 0.00 0.00 37 1013.8
20260504174101 70 223 4.3 13.0 0.00 0.00 0.00 36 1013.8
20260504173601 70 212 3.5 10.4 0.00 0.00 0.00 34 1014.0
20260504173336 70 217 1.7 7.8 0.00 0.00 0.00 37 1013.8
20260504172603 70 82 2.6 7.0 0.00 0.00 0.00 38 1013.8
20260504172101 70 258 3.5 7.0 0.00 0.00 0.00 37 1014.0
20260504171602 69 228 3.5 9.6 0.00 0.00 0.00 36 1014.0
20260504171100 69 243 4.3 9.6 0.00 0.00 0.00 38 1014.1
20260504170601 69 195 4.3 12.2 0.00 0.00 0.00 37 1014.2
20260504160122 65 192 3.5 10.4 0.00 0.00 0.00 39 1015.2
20260504160113 65 248 3.5 10.4 0.00 0.00 0.00 40 1015.0
20260504151102 62 149 2.6 9.6 0.00 0.00 0.00 53 1015.6
20260504150558 61 255 2.6 10.4 0.00 0.00 0.00 53 1015.4
20260504141031 58 152 2.6 8.7 0.00 0.00 0.00 61 1015.9
20260504140530 57 232 1.7 8.7 0.00 0.00 0.00 62 1015.8
20260504130802 53 136 2.6 8.7 0.00 0.00 0.00 73 1016.2
20260504100501 40 219 0.0 0.0 0.00 0.00 0.00 88 1016.9
20260504081937 41 219 0.0 0.0 0.00 0.00 0.00 87 1016.8
20260504081436 41 219 0.0 0.0 0.00 0.00 0.00 87 1016.8
20260504080934 41 219 0.0 1.7 0.00 0.00 0.00 87 1016.7
20260504080436 41 219 0.0 1.7 0.00 0.00 0.00 87 1016.8
20260504080207 41 219 0.0 2.6 0.00 0.00 0.00 87 1016.8